Location: Briis
(48.6240°N, 2.1211°E)
Time: 01:30:52
(UTC+00:00)

USA 305 - Pass Details

Date: 25 September 2020
Orbit: 565 x 582 km, 54.0° (Epoch: 23 October)

Event Time Altitude Azimuth Distance (km) Brightness Sun altitude
Exits shadow 02:36:28 33° 41° (NE) 961 4.5 -29.6°
Drops below altitude 10° 02:39:05 10° 61° (ENE) 1,868 6.4 -29.3°
Sets 02:41:23 0° 66° (ENE) 2,764 7.6 -28.9°
